Regional Weather Roundup
Issued by NWS Sterling, VA

Home | Current Version | Previous Version | Graphics & Text | Print | Product List | Glossary On
Versions: 1 2 3 4 5 6 7 8 9 10 11 12 13 14 15 16 17 18 19 20 21 22 23 24 25 26 27 28
000
ASUS41 KLWX 250410
RWRLWX

REGIONAL WEATHER ROUNDUP
NATIONAL WEATHER SERVICE BALTIMORE MD/WASHINGTON DC
1100 PM EST FRI FEB 24 2017

Note: "FAIR" indicates few or no clouds below 12,000 feet
with no significant weather and/or obstructions to visibility.
 TC=TEMPERATURE CELSIUS

 * =Non NWS site. Station does not report precipitation (e.g. rain,
    snow, etc.), thunder, or fog.

DCZ001-MDZ009-015-VAZ040>042-051-053>054-250500-
WASHINGTON METRO

CITY           SKY/WX    TMP DP  RH WIND       PRES   REMARKS
WASHINGTON NAT MOCLDY    61  58  90 S10       29.79F
DULLES         MOCLDY    63  56  78 S12       29.76F
ANDREWS AFB    PTCLDY    62  58  87 S15       29.78F
FT BELVOIR     PTCLDY    62  57  84 SE6       29.78F
QUANTICO       CLOUDY    57  56  96 SW10      29.79F
COLLEGE PARK*  PTCLDY    63  55  77 S3        29.78F
LEESBURG*      PTCLDY    64  59  82 MISG      29.77F
MANASSAS*        N/A     62  57  83 S13       29.77F
GAITHERSBURG*  MOCLDY    61  54  77 SE10      29.81F

$$

MDZ006>007-011-014-250500-
BALTIMORE METRO

CITY           SKY/WX    TMP DP  RH WIND       PRES   REMARKS
BWI AIRPORT    MOCLDY    60  59  96 SE5       29.79F
MD SCIENCE CTR   N/A     61  56  83 MISG      29.81F
MARTIN STATE   CLOUDY    54  54 100 SE10      29.82F
ANNAPOLIS      CLOUDY    57  55  93 S9        29.81F
FORT MEADE*    MOCLDY    59  55  88 SE5       29.82S

$$

MDZ012-015-019>023-250500-
MARYLAND EASTERN SHORE

CITY           SKY/WX    TMP DP  RH WIND       PRES   REMARKS
OCEAN CITY     CLEAR     57  54  89 VRB6      29.86S
SALISBURY      CLEAR     59  57  93 S6        29.84F
BAY BRIDGE AP* CLOUDY    57  55  94 S12       29.81F
CAMBRIDGE*       N/A     61  55  82 S12       29.83F
EASTON*        CLEAR     63  56  79 S10G17    29.86F

$$

MDZ017>025-250500-
SOUTHERN MARYLAND

CITY           SKY/WX    TMP DP  RH WIND       PRES   REMARKS
PATUXENT RIVER PTCLDY    56  55  97 SE8       29.82F
ST INIGOES     PTCLDY    60  56  86 S8        29.82F
LEONARDTOWN*   CLEAR     59  55  88 SE5       29.83F

$$

MDZ003>005-250500-
NORTH CENTRAL MARYLAND

CITY           SKY/WX    TMP DP  RH WIND       PRES   REMARKS
FREDERICK*     PTCLDY    63  57  82 S6        29.79S
HAGERSTOWN APT CLOUDY    65  54  67 S15G21    29.74S
WESTMINSTER*   MOCLDY    61  57  88 SE9G16    29.78S

$$

MDZ501>502-250500-
WESTERN MARYLAND

CITY           SKY/WX    TMP DP  RH WIND       PRES   REMARKS
OAKLAND*       PTCLDY    54  46  76 S13       29.74R
CUMBERLAND*    PTCLDY    63  48  59 S6        29.75S

$$

VAZ025>031-250500-
SHENANDOAH VALLEY

CITY           SKY/WX    TMP DP  RH WIND       PRES   REMARKS
WINCHESTER*    CLEAR     63  50  63 SE12      29.74S
FRONT ROYAL*   CLEAR     64  52  63 SW3       29.73S
LURAY*         CLOUDY    61  54  77 SW6       29.75S
NEW MARKET*    PTCLDY    63  50  62 SW7       29.75R
STAUNTON*      CLEAR     60  51  72 S6        29.79R
WAYNESBORO*    CLEAR     63  51  64 S9G16     29.78R

$$

WVZ021-048>050-054>055-250500-
EASTERN WEST VIRGINIA PANHANDLE

CITY           SKY/WX    TMP DP  RH WIND       PRES   REMARKS
MARTINSBURG    CLEAR     63  51  65 SE5       29.73S
PETERSBURG*    MOCLDY    56  49  77 CALM      29.72F

$$

VAZ036>039-050-250500-
CENTRAL FOOTHILLS

CITY           SKY/WX    TMP DP  RH WIND       PRES   REMARKS
CHARLOTTESVILL PTCLDY    65  53  65 S10       29.76F
CULPEPER*      PTCLDY    65  56  75 S7        29.77S
ORANGE*        PTCLDY    63  54  72 SE6       29.78S
GORDONSVILLE*  MOCLDY    62  55  77 SW5       29.76F
WARRENTON*     CLEAR     64  54  68 SE6       29.76F

$$

VAZ055>057-250500-
NORTH AND CENTRAL PIEDMONT

CITY           SKY/WX    TMP DP  RH WIND       PRES   REMARKS
FREDERICKSBRG* PTCLDY    64  59  83 S13G20    29.77F
STAFFORD*      PTCLDY    63  59  88 S12       29.82F

$$

NCZ024-NYZ072-PAZ021-071-VAZ022-071-250500-
OTHER REGIONAL OBSERVATIONS

CITY           SKY/WX    TMP DP  RH WIND       PRES   REMARKS
NEW YORK CITY  MOCLDY    61  56  83 VRB5      29.88S
PHILADELPHIA   PTCLDY    59  56  89 S8        29.84F
PITTSBURGH     CLOUDY    64  47  53 S7        29.59F
ROANOKE        PTCLDY    62  50  64 SE3       29.80S
RICHMOND       PTCLDY    63  58  83 S10       29.81F
RALEIGH        PTCLDY    66  57  72 S10       29.83F

$$

ANZ530>537-250500-
MARINE OBSERVATIONS

STATION/POSITION TIME  TEMP    WIND        PRES
                       AIR SEA DIR/SP/G
                 (UTC) (F)     (DEG/KT/KT) (MB)
THOMAS PT LIGHT  0400   54 45  160/ 19/ 20   N/A
BALT KEY BRIDGE  0348   58     160/ 15/ 16 1008.9F
COVE POINT       0348   51     190/ 15/ 17 1010.4F
LEWISETTA        0348   61 47  190/ 10/ 12 1009.6F
SOLOMONS ISLAND  0348          170/ 10/ 15   N/A
PINEY POINT      0348          160/ 11/ 11   N/A

$$





USA.gov is the U.S. government's official web portal to all federal, state and local government web resources and services.